Chehalis, WA
on Tuesday, January 8, 2013

Tuesday
Previous Day Next Day
Daily Summary
 ActualAverage (KOLM)Record (KOLM)
Temperature
Mean Temperature °F 39°F  
Max Temperature 51°F 45°F 55°F (1953)
Min Temperature 42°F 34°F 9°F (1974)
Degree Days
Heating Degree Days 18 26  
Month to date heating degree days 208  
Since 1 July heating degree days 2478  
Cooling Degree Days 0 0  
Month to date cooling degree days 0  
Year to date cooling degree days 0  
Moisture
Dew Point 46°F   
Average Humidity 94    
Maximum Humidity 100    
Minimum Humidity 87    
Precipitation
Precipitation 0.28 in 0.26 in 1.20 in (1990)
Month to date precipitation 2.04  
Year to date precipitation 2.04  
Wind
Wind Speed 7 mph   
Max Wind Speed 23 mph   
Max Gust Speed 32 mph   
Visibility 6 miles   
Events Rain   

Key: T is trace of precipitation, MM is missing value
Source: NWS Daily Summary
Time(PST)TemperatureDew PointHumidity Pressure Visibility Wind DirectionWind SpeedGust SpeedPrecipitationEvents Conditions
12:15 AM 44.6°F 41.0°F 87% 30.20 in 10.0 miles Calm Calm - N/A   Overcast
12:35 AM 44.6°F 41.0°F 87% 30.20 in 10.0 miles Calm Calm - N/A   Overcast
12:55 AM 42.8°F 41.0°F 93% 30.20 in 10.0 miles SW 3.5 mph - N/A   Overcast
1:15 AM 42.8°F 41.0°F 93% 30.19 in 7.0 miles Calm Calm - N/A   Overcast
1:35 AM 42.8°F 41.0°F 93% 30.19 in 10.0 miles Calm Calm - N/A   Overcast
1:55 AM 42.8°F 41.0°F 93% 30.19 in 10.0 miles Calm Calm - N/A   Overcast
2:15 AM 42.8°F 41.0°F 93% 30.18 in 10.0 miles Calm Calm - N/A   Overcast
2:35 AM 44.6°F 42.8°F 93% 30.18 in 10.0 miles SW 3.5 mph - N/A   Overcast
2:55 AM 44.6°F 42.8°F 93% 30.18 in 6.0 miles Calm Calm - N/A   Overcast
3:15 AM 44.6°F 42.8°F 93% 30.17 in 7.0 miles Calm Calm - N/A   Mostly Cloudy
3:35 AM 44.6°F 42.8°F 93% 30.17 in 8.0 miles WSW 3.5 mph - N/A   Mostly Cloudy
3:55 AM 44.6°F 42.8°F 93% 30.16 in 10.0 miles SW 4.6 mph - N/A   Overcast
4:15 AM 44.6°F 42.8°F 93% 30.15 in 9.0 miles Calm Calm - N/A   Overcast
4:35 AM 44.6°F 42.8°F 93% 30.13 in 10.0 miles Calm Calm - N/A   Overcast
4:55 AM 44.6°F 42.8°F 93% 30.12 in 9.0 miles SW 3.5 mph - N/A   Overcast
5:35 AM 44.6°F 42.8°F 93% 30.10 in 3.0 miles SSE 4.6 mph - 0.03 in Rain Light Rain
5:55 AM 44.6°F 42.8°F 93% 30.09 in 5.0 miles South 4.6 mph - 0.03 in Rain Light Rain
6:15 AM 44.6°F 42.8°F 93% 30.08 in 3.0 miles SSE 3.5 mph - 0.01 in   Overcast
6:35 AM 44.6°F 42.8°F 93% 30.06 in 3.0 miles SSE 5.8 mph - 0.03 in Rain Light Rain
6:55 AM 44.6°F 42.8°F 93% 30.05 in 3.0 miles South 4.6 mph - 0.04 in Rain Light Rain
7:15 AM 44.6°F 42.8°F 93% 30.05 in 3.0 miles South 4.6 mph - 0.02 in   Overcast
7:35 AM 44.6°F 42.8°F 93% 30.05 in 4.0 miles South 4.6 mph - 0.03 in   Overcast
7:55 AM 44.6°F 41.0°F 87% 30.04 in 5.0 miles South 8.1 mph - 0.04 in Rain Light Rain
8:15 AM 44.6°F 41.0°F 87% 30.04 in 5.0 miles SSW 5.8 mph - N/A   Overcast
8:35 AM 44.6°F 42.8°F 93% 30.03 in 7.0 miles South 10.4 mph - 0.01 in   Overcast
8:55 AM 44.6°F 42.8°F 93% 30.03 in 5.0 miles South 10.4 mph - 0.01 in   Overcast
9:15 AM 44.6°F 44.6°F 100% 30.03 in 5.0 miles South 9.2 mph - N/A   Overcast
9:35 AM 46.4°F 44.6°F 93% 30.04 in 3.0 miles South 9.2 mph - 0.01 in   Mostly Cloudy
9:55 AM 46.4°F 44.6°F 93% 30.03 in 3.0 miles SSW 8.1 mph - 0.04 in Rain Light Rain
10:15 AM 46.4°F 46.4°F 100% 30.02 in 3.0 miles South 11.5 mph 17.3 mph 0.01 in Rain Light Rain
10:35 AM 48.2°F 46.4°F 93% 30.01 in 9.0 miles South 12.7 mph 18.4 mph 0.01 in   Overcast
11:15 AM 48.2°F 46.4°F 93% 30.00 in 10.0 miles SSW 11.5 mph 17.3 mph N/A   Overcast
11:35 AM 48.2°F 46.4°F 93% 29.99 in 4.0 miles South 15.0 mph 21.9 mph N/A   Overcast
11:55 AM 50.0°F 48.2°F 94% 29.99 in 6.0 miles South 12.7 mph 21.9 mph N/A   Overcast
12:15 PM 50.0°F 48.2°F 94% 29.98 in 5.0 miles South 15.0 mph 23.0 mph N/A   Overcast
12:35 PM 50.0°F 48.2°F 94% 29.98 in 3.0 miles South 15.0 mph 20.7 mph 0.01 in Rain Light Rain
12:55 PM 50.0°F 48.2°F 94% 29.97 in 5.0 miles South 13.8 mph 21.9 mph 0.01 in   Overcast
1:15 PM 50.0°F 48.2°F 94% 29.97 in 2.0 miles South 11.5 mph 18.4 mph 0.01 in   Overcast
1:35 PM 50.0°F 48.2°F 94% 29.97 in 2.5 miles South 13.8 mph 20.7 mph 0.01 in   Mostly Cloudy
1:55 PM 50.0°F 48.2°F 94% 29.95 in 8.0 miles South 13.8 mph 20.7 mph 0.01 in   Overcast
2:15 PM 50.0°F 48.2°F 94% 29.95 in 5.0 miles South 10.4 mph 20.7 mph N/A   Overcast
2:35 PM 50.0°F 48.2°F 94% 29.95 in 4.0 miles South 12.7 mph 21.9 mph N/A   Overcast
2:55 PM 50.0°F 48.2°F 94% 29.95 in 3.0 miles South 9.2 mph 18.4 mph 0.02 in Rain Light Rain
3:15 PM 50.0°F 48.2°F 94% 29.95 in 6.0 miles SSW 9.2 mph - N/A   Overcast
3:35 PM 50.0°F 50.0°F 100% 29.94 in 5.0 miles South 15.0 mph 18.4 mph 0.01 in Rain Light Rain
3:55 PM 50.0°F 50.0°F 100% 29.94 in 5.0 miles South 13.8 mph 18.4 mph 0.02 in   Overcast
4:35 PM 50.0°F 50.0°F 100% 29.93 in 3.0 miles South 13.8 mph 18.4 mph N/A   Overcast
4:55 PM 50.0°F 48.2°F 94% 29.92 in 10.0 miles South 13.8 mph 20.7 mph N/A   Overcast
5:15 PM 51.8°F 48.2°F 88% 29.91 in 10.0 miles South 13.8 mph 21.9 mph N/A   Overcast
5:55 PM 50.0°F 48.2°F 94% 29.91 in 3.0 miles South 13.8 mph 20.7 mph 0.01 in Rain Light Rain
6:15 PM 50.0°F 50.0°F 100% 29.90 in 3.0 miles South 13.8 mph 21.9 mph N/A   Overcast
6:35 PM 50.0°F 50.0°F 100% 29.89 in 5.0 miles South 15.0 mph 18.4 mph N/A   Overcast
6:55 PM 50.0°F 48.2°F 94% 29.89 in 5.0 miles South 13.8 mph 21.9 mph N/A   Overcast
7:15 PM 50.0°F 48.2°F 94% 29.88 in 7.0 miles South 15.0 mph - N/A   Overcast
7:35 PM 50.0°F 48.2°F 94% 29.87 in 9.0 miles South 15.0 mph 19.6 mph N/A   Overcast
7:55 PM 50.0°F 48.2°F 94% 29.87 in 7.0 miles South 16.1 mph 25.3 mph N/A   Overcast
8:15 PM 50.0°F 48.2°F 94% 29.87 in 10.0 miles South 15.0 mph 20.7 mph N/A   Overcast
8:35 PM 50.0°F 48.2°F 94% 29.86 in 5.0 miles South 15.0 mph 21.9 mph 0.01 in   Overcast
8:55 PM 50.0°F 48.2°F 94% 29.85 in 5.0 miles South 16.1 mph 25.3 mph 0.01 in   Overcast
9:15 PM 50.0°F 48.2°F 94% 29.84 in 8.0 miles South 17.3 mph 25.3 mph N/A   Overcast
9:35 PM 50.0°F 48.2°F 94% 29.84 in 10.0 miles South 15.0 mph 21.9 mph N/A   Overcast
10:15 PM 50.0°F 48.2°F 94% 29.83 in 3.0 miles SSW 15.0 mph 25.3 mph N/A   Overcast
10:35 PM 50.0°F 48.2°F 94% 29.81 in 2.5 miles South 23.0 mph 31.1 mph N/A Rain Light Rain
10:55 PM 50.0°F 48.2°F 94% 29.81 in 2.5 miles South 18.4 mph 32.2 mph 0.01 in Rain Light Rain
11:15 PM 50.0°F 48.2°F 94% 29.81 in 3.0 miles South 18.4 mph 27.6 mph N/A Rain Light Rain
11:35 PM 50.0°F 48.2°F 94% 29.81 in 3.0 miles SSW 17.3 mph 25.3 mph N/A Rain Light Rain
11:55 PM 50.0°F 48.2°F 94% 29.81 in 3.0 miles SSW 13.8 mph 20.7 mph 0.02 in   Overcast
Moon Phase
Jan. 08 Jan. 11 Jan. 18 Jan. 26 Feb. 03
Sunrise:07:55 AM (PST) Moon Rise:04:33 AM (PST)1/8
Sunset:04:42 PM (PST) Moon Set:01:50 PM (PST)1/8

Copyright © 2014 The Weather Underground, Inc.